Back to catalog

DELTA 1 DEB

AliveUNKNOWN
NORAD 42578·DEBRIS·🇺🇸 United States

Launched Nov 6, 1973 from Vandenberg Space Force Base

Loading…

Next Passes (next 24 hours)

TLE

AgingSource: Space-Track

Epoch: Aug 24, 2026, 13:45 UTC

1 42578U 73086HS  26236.57332969  .00001547  00000-0  18255-1 0  9992
2 42578 100.6626 102.9619 0830260 307.5351  45.2970 11.39243954 89050

Track DELTA 1 DEB in real time with AllMySat

Download on the App Store